Weather in Kapitanivka

Ukraine / Kirovohrad Region     48°55′02″N   31°43′11″E
temp.,
°C
wind,
m/s
gust,
m/s
humid.,
%
clouds,
%
prec.,
mm/h
press.,
hPa
HPBL,
m
26 july, mon
mon2600:00+21ene2257100 0.0 102018
03:00+21ene225928 0.0 102025
06:00+19e226937 0.0 102024
09:00+25e34512 0.0 1020382
12:00+29se34354 0.0 10202438
15:00+26se554591 0.0 1019784
18:00+27ene444334 0.0 1020746
21:00+23e335135 0.0 102028
27 july, tue
tue2700:00+21e465252 0.0 102079
03:00+21se2353100 0.0 102062
06:00+21se345585 0.0 102074
09:00+24se465079 0.0 1020289
12:00+30sse55354 0.0 10191520
15:00+31s343349 0.0 10182537
18:00+31s233736 0.0 10171789
21:00+24s22535 0.0 101716
28 july, wed
wed2800:00+24s3847100 0.0 1018171
03:00+22s4848100 0.0 1016137
06:00+21ssw366016 0.0 101694
09:00+26ssw5752100 0.2 1015428
12:00+30sw574455 0.1 10151055
15:00+32wsw79385 0.1 10131988
18:00+32w58455 0.0 10121995
21:00+25nw22675 0.0 101214
29 july, thu
thu2900:00+23ssw227796 0.8 101319
03:00+22sw118290 2.3 101211
06:00+21wsw338859 0.0 101163
09:00+25wsw57612 0.0 1011388
12:00+30sw6746100 0.0 1011954
15:00+31w564344 0.0 10101112
18:00+31w45450 0.0 10091462
21:00+25wnw37714 0.0 1010116
30 july, fri
fri3000:00+22nw39806 0.2 1011193
03:00+20nw36870 0.2 1011104
06:00+19nw38920 0.0 1012181
09:00+24nnw46660 0.0 1012655
12:00+28nnw44490 0.0 10121535
15:00+30nw44410 0.0 10111957
18:00+29nw44411 0.0 10112033
21:00+23nnw11580 0.0 101111